Terug naar catalogus

STARLINK-36856

ActiefCommunicatieSSO
NORAD 67883·PAYLOAD·🇺🇸 United States

Gelanceerd Feb 21, 2026 vanaf Vandenberg Space Force Base

Loading…

Volgende Passages (komende 24 uur)

TLE

VersSource: CelesTrak SupGP

Epoch: Sep 15, 2026, 03:34 UTC

1 67883C 26035E   26258.14909722  .00095686  00000+0  29703-2 0  2589
2 67883  97.2851 190.0529 0001965  97.6646 188.4943 15.33389654    16

Volg STARLINK-36856 in realtime met AllMySat

Download on the App Store